Other Surface Observations
Issued by NWS Jacksonville, FL

Home | Current Version | Previous Version | Text Only | Print | Product List | Glossary On
Versions: 1 2 3 4 5 6 7 8 9 10 11 12 13 14 15 16 17 18 19 20 21 22 23 24 25 26 27 28 29 30 31 32 33 34 35 36 37 38 39 40 41 42 43 44 45 46 47 48 49 50
000
SXUS52 KJAX 172313
OSOJAX
OTHER SURFACE OBSERVATIONS
NATIONAL WEATHER SERVICE JACKSONVILLE FL
600 PM EST WED JAN 17 2018

FLZ020>025-030>033-035>038-040-180000-
...FLORIDA...

CITY           SKY/WX    TMP DP  RH WIND       PRES   REMARKS
CECIL FIELD    CLEAR     41  30  65 NW7       30.27R WCI  36
HERLONG FIELD  NOT AVBL
FERNANDINA BCH NOT AVBL
LAKE CITY      FAIR      37  23  56 NW9       30.30R WCI  31
JUNIPER SPGS   NOT AVBL
BUNNELL        NOT AVBL
KEYSTONE HGTS  FAIR      43  28  56 NW12      30.28R WCI  37
$$

GAZ132>136-149>154-162>166-180000-
...GEORGIA...

CITY           SKY/WX    TMP DP  RH WIND       PRES   REMARKS
JESUP          FAIR      39  16  38 NW16      30.28R WCI  30
HOMERVILLE     FAIR      34  18  51 NW13G23   30.32R WCI  25
SWAINSBORO     FAIR      32  14  47 NW14G22   30.31R WCI  22
CORDELE        NOT AVBL
EASTMAN        FAIR      32  -3  22 NW10G20   30.38R WCI  23
$$

PLEASE NOTE:  THESE OBSERVATIONS ARE NOT QUALITY CONTROLLED AND MAY
NOT BE AVAILABLE AT ALL TIMES.
$$




USA.gov is the U.S. government's official web portal to all federal, state and local government web resources and services.